^^
Saratoga-Weather Station Historical Data
Daily Summary for February 12, 2021 Units:  Metric    English   Both
Daily Weekly Monthly Yearly Custom
  High: Low: Average:
Temperature: 6.3 °C 1.9 °C 3.5 °C
Dew Point: 5.6 °C 0.1 °C 2.4 °C
Humidity: 95% 86% 93%
Wind Speed: 20.9km/h 0km/h 6.3km/h
Wind Gust: 25.7km/h - -
Wind- - West
Pressure: 1018.3 hPa 1009.5 hPa -
Precipitation: 21.1 mm    
Historical Graphs
 
 
Tabular Data for February 12, 2021
Time Temperature Dew Point Pressure Wind Wind Speed Wind Gust Humidity Rainfall Rate (Hourly) solar
00:02 1.9 °C 0.1 °C 1018.3 hPa NNE 4.7 km/h 4.8 km/h 88% 0.0 mm 0 W/m2
00:07 1.9 °C 0.1 °C 1018.3 hPa NNW 1.4 km/h 14.5 km/h 88% 0.0 mm 0 W/m2
00:12 1.9 °C 0.1 °C 1018.3 hPa West 3.2 km/h 11.3 km/h 88% 0.0 mm 0 W/m2
00:17 1.9 °C 0.1 °C 1018.0 hPa WNW 11.1 km/h 14.5 km/h 88% 0.0 mm 0 W/m2
00:22 1.9 °C 0.1 °C 1018.0 hPa Calm   4.8 km/h 88% 0.0 mm 0 W/m2
00:27 1.9 °C 0.1 °C 1018.0 hPa WNW 9.7 km/h 12.9 km/h 88% 0.0 mm 0 W/m2
00:32 2 °C 0.4 °C 1018.0 hPa SW 3.2 km/h 22.5 km/h 89% 0.0 mm 0 W/m2
00:37 2.1 °C 0.3 °C 1018.0 hPa WSW 4.7 km/h 4.8 km/h 88% 0.0 mm 0 W/m2
00:42 2.1 °C 0.5 °C 1017.6 hPa SE 6.4 km/h 22.5 km/h 89% 0.0 mm 0 W/m2
00:47 2.1 °C 0.5 °C 1017.6 hPa NW 1.4 km/h 8 km/h 89% 0.0 mm 0 W/m2
00:52 2.1 °C 0.5 °C 1017.6 hPa WNW 4.7 km/h 17.7 km/h 89% 0.0 mm 0 W/m2
00:57 2.2 °C 0.6 °C 1017.6 hPa WNW 7.9 km/h 12.9 km/h 89% 0.0 mm 0 W/m2
01:02 2.2 °C 0.6 °C 1017.3 hPa West 20.9 km/h 20.9 km/h 89% 0.0 mm 0 W/m2
01:07 2.2 °C 0.6 °C 1017.3 hPa NW 4.7 km/h 8 km/h 89% 0.0 mm 0 W/m2
01:12 2.2 °C 0.6 °C 1017.3 hPa NE 3.2 km/h 3.2 km/h 89% 0.0 mm 0 W/m2
01:17 2.3 °C 0.7 °C 1017.3 hPa South 1.4 km/h 4.8 km/h 89% 0.0 mm 0 W/m2
01:22 2.3 °C 0.7 °C 1017.3 hPa North 3.2 km/h 6.4 km/h 89% 0.0 mm 0 W/m2
01:27 2.3 °C 0.7 °C 1016.9 hPa SW 4.7 km/h 9.7 km/h 89% 0.0 mm 0 W/m2
01:32 2.3 °C 0.7 °C 1016.9 hPa West 6.4 km/h 9.7 km/h 89% 0.0 mm 0 W/m2
01:37 2.3 °C 0.7 °C 1016.9 hPa NNW 9.7 km/h 9.7 km/h 89% 0.0 mm 0 W/m2
01:42 2.3 °C 0.8 °C 1016.9 hPa NNW 3.2 km/h 8 km/h 90% 0.0 mm 0 W/m2
01:47 2.3 °C 0.8 °C 1016.9 hPa WNW 4.7 km/h 11.3 km/h 90% 0.0 mm 0 W/m2
01:52 2.3 °C 0.8 °C 1016.6 hPa WNW 3.2 km/h 4.8 km/h 90% 0.0 mm 0 W/m2
01:57 2.3 °C 1 °C 1016.9 hPa WNW 1.4 km/h 14.5 km/h 91% 0.0 mm 0 W/m2
02:02 2.3 °C 1 °C 1016.6 hPa NNW 13 km/h 12.9 km/h 91% 0.0 mm 0 W/m2
02:07 2.2 °C 1 °C 1016.6 hPa West 4.7 km/h 14.5 km/h 92% 0.0 mm 0 W/m2
02:12 2.2 °C 1 °C 1016.6 hPa SW 6.4 km/h 14.5 km/h 92% 0.0 mm 0 W/m2
02:17 2.2 °C 1 °C 1016.6 hPa NNW 3.2 km/h 11.3 km/h 92% 0.0 mm 0 W/m2
02:22 2.2 °C 1.2 °C 1016.6 hPa NNW 3.2 km/h 11.3 km/h 93% 0.0 mm 0 W/m2
02:27 2.2 °C 1.2 °C 1016.6 hPa West 3.2 km/h 11.3 km/h 93% 0.0 mm 0 W/m2
02:32 2.2 °C 1.2 °C 1016.3 hPa WNW 1.4 km/h 6.4 km/h 93% 0.0 mm 0 W/m2
02:37 2.2 °C 1.2 °C 1016.3 hPa West 4.7 km/h 12.9 km/h 93% 0.0 mm 0 W/m2
02:42 2.3 °C 1.4 °C 1016.3 hPa NW 3.2 km/h 11.3 km/h 94% 0.0 mm 0 W/m2
02:47 2.3 °C 1.4 °C 1016.3 hPa WNW 6.4 km/h 11.3 km/h 94% 0.0 mm 0 W/m2
02:52 2.3 °C 1.4 °C 1016.3 hPa NW 4.7 km/h 14.5 km/h 94% 0.0 mm 0 W/m2
02:57 2.4 °C 1.5 °C 1016.3 hPa WSW 7.9 km/h 9.7 km/h 94% 0.0 mm 0 W/m2
03:02 2.4 °C 1.5 °C 1016.3 hPa WSW 11.1 km/h 17.7 km/h 94% 0.0 mm 0 W/m2
03:07 2.4 °C 1.5 °C 1016.3 hPa NW 3.2 km/h 9.7 km/h 94% 0.2 mm 0 W/m2
03:12 2.4 °C 1.5 °C 1016.3 hPa North 3.2 km/h 17.7 km/h 94% 0.2 mm 0 W/m2
03:17 2.4 °C 1.5 °C 1015.9 hPa WNW 1.4 km/h 6.4 km/h 94% 0.2 mm 0 W/m2
03:22 2.4 °C 1.5 °C 1015.9 hPa NNE 3.2 km/h 6.4 km/h 94% 0.2 mm 0 W/m2
03:27 2.4 °C 1.5 °C 1015.9 hPa NW 4.7 km/h 11.3 km/h 94% 0.5 mm 0 W/m2
03:32 2.4 °C 1.5 °C 1015.6 hPa WSW 6.4 km/h 14.5 km/h 94% 0.5 mm 0 W/m2
03:37 2.4 °C 1.5 °C 1015.6 hPa West 1.4 km/h 8 km/h 94% 0.5 mm 0 W/m2
03:42 2.4 °C 1.5 °C 1015.6 hPa North 4.7 km/h 17.7 km/h 94% 0.5 mm 0 W/m2
03:47 2.5 °C 1.6 °C 1015.6 hPa WSW 7.9 km/h 14.5 km/h 94% 0.5 mm 0 W/m2
03:52 2.6 °C 1.7 °C 1015.2 hPa South 6.4 km/h 14.5 km/h 94% 0.5 mm 0 W/m2
03:57 2.6 °C 1.7 °C 1015.2 hPa WNW 3.2 km/h 14.5 km/h 94% 0.5 mm 0 W/m2
04:02 2.6 °C 1.7 °C 1015.2 hPa WNW 4.7 km/h 19.3 km/h 94% 0.5 mm 0 W/m2
04:08 2.6 °C 1.7 °C 1015.2 hPa West 6.4 km/h 11.3 km/h 94% 0.2 mm 0 W/m2
04:13 2.6 °C 1.7 °C 1014.9 hPa West 4.7 km/h 12.9 km/h 94% 0.2 mm 0 W/m2
04:18 2.6 °C 1.7 °C 1014.9 hPa West 13 km/h 22.5 km/h 94% 0.2 mm 0 W/m2
04:23 2.6 °C 1.7 °C 1014.6 hPa WSW 6.4 km/h 12.9 km/h 94% 0.2 mm 0 W/m2
04:28 2.6 °C 1.7 °C 1014.6 hPa NW 7.9 km/h 12.9 km/h 94% 0.0 mm 0 W/m2
04:33 2.7 °C 1.8 °C 1014.6 hPa SW 1.4 km/h 11.3 km/h 94% 0.0 mm 0 W/m2
04:38 2.7 °C 1.8 °C 1014.6 hPa WNW 7.9 km/h 11.3 km/h 94% 0.0 mm 0 W/m2
04:43 2.7 °C 1.8 °C 1014.2 hPa WNW 16.3 km/h 20.9 km/h 94% 0.0 mm 0 W/m2
04:48 2.7 °C 1.8 °C 1014.2 hPa WNW 3.2 km/h 19.3 km/h 94% 0.0 mm 0 W/m2
04:53 2.7 °C 1.8 °C 1014.2 hPa NNW 6.4 km/h 11.3 km/h 94% 0.0 mm 0 W/m2
04:58 2.7 °C 1.8 °C 1014.2 hPa NW 6.4 km/h 9.7 km/h 94% 0.0 mm 0 W/m2
05:03 2.7 °C 1.8 °C 1014.2 hPa NW 4.7 km/h 19.3 km/h 94% 0.0 mm 0 W/m2
05:08 2.7 °C 1.8 °C 1013.9 hPa West 3.2 km/h 14.5 km/h 94% 0.0 mm 0 W/m2
05:13 2.8 °C 2.1 °C 1013.9 hPa West 6.4 km/h 22.5 km/h 95% 0.2 mm 0 W/m2
05:18 2.8 °C 1.9 °C 1013.9 hPa NW 6.4 km/h 16.1 km/h 94% 0.5 mm 0 W/m2
05:23 2.7 °C 1.8 °C 1013.5 hPa WSW 11.1 km/h 17.7 km/h 94% 0.5 mm 0 W/m2
05:28 2.7 °C 1.8 °C 1013.5 hPa West 6.4 km/h 14.5 km/h 94% 1.3 mm 0 W/m2
05:33 2.7 °C 1.8 °C 1013.5 hPa NW 3.2 km/h 19.3 km/h 94% 1.8 mm 0 W/m2
05:38 2.7 °C 1.8 °C 1013.5 hPa WSW 4.7 km/h 22.5 km/h 94% 2.3 mm 0 W/m2
05:43 2.7 °C 1.8 °C 1013.5 hPa NW 11.1 km/h 12.9 km/h 94% 2.5 mm 0 W/m2
05:48 2.7 °C 1.8 °C 1013.5 hPa South 11.1 km/h 14.5 km/h 94% 2.8 mm 0 W/m2
05:53 2.7 °C 1.8 °C 1013.5 hPa NNW 1.4 km/h 12.9 km/h 94% 3.0 mm 0 W/m2
05:58 2.7 °C 1.8 °C 1013.2 hPa SSE 3.2 km/h 11.3 km/h 94% 3.3 mm 0 W/m2
06:03 2.7 °C 1.8 °C 1013.2 hPa NW 16.3 km/h 24.1 km/h 94% 3.6 mm 0 W/m2
06:08 2.7 °C 1.8 °C 1012.9 hPa NW 1.4 km/h 19.3 km/h 94% 3.8 mm 0 W/m2
06:13 2.7 °C 1.8 °C 1012.9 hPa SW 4.7 km/h 16.1 km/h 94% 3.8 mm 0 W/m2
06:18 2.7 °C 1.8 °C 1012.9 hPa West 6.4 km/h 24.1 km/h 94% 3.8 mm 0 W/m2
06:23 2.6 °C 1.7 °C 1012.9 hPa NNE 4.7 km/h 14.5 km/h 94% 3.8 mm 0 W/m2
06:28 2.6 °C 1.7 °C 1012.9 hPa West 1.4 km/h 12.9 km/h 94% 3.3 mm 0 W/m2
06:33 2.6 °C 1.7 °C 1012.9 hPa West 4.7 km/h 14.5 km/h 94% 3.0 mm 0 W/m2
06:38 2.7 °C 1.8 °C 1012.9 hPa NNW 13 km/h 12.9 km/h 94% 2.8 mm 0 W/m2
06:43 2.7 °C 1.8 °C 1012.9 hPa WNW 3.2 km/h 12.9 km/h 94% 2.5 mm 0 W/m2
06:48 2.6 °C 1.7 °C 1012.5 hPa Calm   4.8 km/h 94% 2.5 mm 0 W/m2
06:53 2.6 °C 1.7 °C 1012.5 hPa West 9.7 km/h 12.9 km/h 94% 2.5 mm 0 W/m2
06:58 2.6 °C 1.7 °C 1012.5 hPa NE 3.2 km/h 14.5 km/h 94% 2.5 mm 0 W/m2
07:03 2.6 °C 1.7 °C 1012.5 hPa NNW 3.2 km/h 12.9 km/h 94% 2.3 mm 0 W/m2
07:08 2.6 °C 1.7 °C 1012.5 hPa NNW 4.7 km/h 16.1 km/h 94% 2.3 mm 0 W/m2
07:13 2.6 °C 1.7 °C 1012.5 hPa West 6.4 km/h 8 km/h 94% 2.3 mm 0 W/m2
07:18 2.6 °C 1.7 °C 1012.5 hPa WNW 4.7 km/h 16.1 km/h 94% 2.5 mm 0 W/m2
07:23 2.6 °C 1.7 °C 1012.5 hPa ENE 3.2 km/h 19.3 km/h 94% 2.5 mm 0 W/m2
07:28 2.6 °C 1.7 °C 1012.5 hPa WNW 3.2 km/h 22.5 km/h 94% 2.8 mm 0 W/m2
07:33 2.6 °C 1.7 °C 1012.2 hPa NW 9.7 km/h 20.9 km/h 94% 2.8 mm 0 W/m2
07:38 2.6 °C 1.7 °C 1012.2 hPa WSW 14.3 km/h 22.5 km/h 94% 2.8 mm 0 W/m2
07:43 2.6 °C 1.7 °C 1011.9 hPa NW 1.4 km/h 12.9 km/h 94% 3.0 mm 0 W/m2
07:48 2.6 °C 1.7 °C 1012.2 hPa NE 7.9 km/h 20.9 km/h 94% 3.0 mm 0 W/m2
07:53 2.6 °C 1.7 °C 1012.2 hPa NW 14.3 km/h 14.5 km/h 94% 3.3 mm 0 W/m2
07:58 2.6 °C 1.7 °C 1012.2 hPa NW 6.4 km/h 16.1 km/h 94% 3.3 mm 0 W/m2
08:03 2.6 °C 1.7 °C 1011.9 hPa West 4.7 km/h 12.9 km/h 94% 3.3 mm 0 W/m2
08:08 2.6 °C 1.7 °C 1011.9 hPa WSW 3.2 km/h 14.5 km/h 94% 3.6 mm 0 W/m2
08:13 2.6 °C 1.7 °C 1012.2 hPa NW 3.2 km/h 8 km/h 94% 3.6 mm 0 W/m2
08:18 2.6 °C 1.7 °C 1011.9 hPa WNW 14.3 km/h 19.3 km/h 94% 3.6 mm 0 W/m2
08:23 2.6 °C 1.7 °C 1011.9 hPa WNW 1.4 km/h 14.5 km/h 94% 3.6 mm 0 W/m2
08:28 2.6 °C 1.7 °C 1011.9 hPa NNW 4.7 km/h 11.3 km/h 94% 3.6 mm 0 W/m2
08:33 2.6 °C 1.7 °C 1011.9 hPa SW 3.2 km/h 11.3 km/h 94% 3.6 mm 0 W/m2
08:38 2.5 °C 1.6 °C 1011.9 hPa West 13 km/h 20.9 km/h 94% 3.8 mm 0 W/m2
08:43 2.4 °C 1.5 °C 1011.9 hPa WNW 14.3 km/h 14.5 km/h 94% 3.6 mm 0 W/m2
08:48 2.4 °C 1.5 °C 1011.5 hPa WNW 7.9 km/h 20.9 km/h 94% 3.8 mm 0 W/m2
08:53 2.4 °C 1.5 °C 1011.5 hPa WSW 6.4 km/h 17.7 km/h 94% 3.8 mm 0 W/m2
08:59 2.4 °C 1.5 °C 1011.5 hPa West 4.7 km/h 9.7 km/h 94% 3.8 mm 0 W/m2
09:04 2.3 °C 1.4 °C 1011.2 hPa NW 16.3 km/h 22.5 km/h 94% 3.8 mm 0 W/m2
09:09 2.3 °C 1.4 °C 1011.2 hPa WNW 11.1 km/h 20.9 km/h 94% 3.6 mm 5 W/m2
09:14 2.3 °C 1.4 °C 1011.2 hPa NNE 4.7 km/h 14.5 km/h 94% 3.6 mm 5 W/m2
09:19 2.3 °C 1.4 °C 1011.2 hPa WNW 4.7 km/h 11.3 km/h 94% 3.6 mm 7 W/m2
09:24 2.2 °C 1.3 °C 1011.2 hPa West 6.4 km/h 25.7 km/h 94% 3.6 mm 9 W/m2
09:29 2.2 °C 1.3 °C 1011.2 hPa West 9.7 km/h 16.1 km/h 94% 3.3 mm 11 W/m2
09:34 2.2 °C 1.3 °C 1011.2 hPa WNW 4.7 km/h 14.5 km/h 94% 3.3 mm 12 W/m2
09:39 2.2 °C 1.3 °C 1011.2 hPa NNW 1.4 km/h 12.9 km/h 94% 3.3 mm 16 W/m2
09:44 2.2 °C 1.3 °C 1011.2 hPa NNW 7.9 km/h 17.7 km/h 94% 3.0 mm 18 W/m2
09:49 2.2 °C 1.3 °C 1011.2 hPa WNW 3.2 km/h 14.5 km/h 94% 3.0 mm 18 W/m2
09:54 2.3 °C 1.4 °C 1011.2 hPa West 17.7 km/h 19.3 km/h 94% 2.5 mm 21 W/m2
09:59 2.3 °C 1.4 °C 1011.2 hPa WNW 4.7 km/h 12.9 km/h 94% 2.5 mm 21 W/m2
10:04 2.3 °C 1.4 °C 1011.2 hPa NW 4.7 km/h 19.3 km/h 94% 2.3 mm 23 W/m2
10:09 2.4 °C 1.5 °C 1011.2 hPa NW 16.3 km/h 16.1 km/h 94% 2.3 mm 26 W/m2
10:14 2.4 °C 1.5 °C 1011.5 hPa West 3.2 km/h 11.3 km/h 94% 2.3 mm 35 W/m2
10:19 2.4 °C 1.5 °C 1011.2 hPa West 4.7 km/h 16.1 km/h 94% 1.8 mm 39 W/m2
10:24 2.4 °C 1.5 °C 1011.2 hPa NNW 9.7 km/h 16.1 km/h 94% 1.5 mm 39 W/m2
10:29 2.6 °C 1.7 °C 1011.2 hPa NW 7.9 km/h 9.7 km/h 94% 1.5 mm 32 W/m2
10:34 2.6 °C 1.7 °C 1011.2 hPa WNW 3.2 km/h 19.3 km/h 94% 1.5 mm 35 W/m2
10:39 2.6 °C 1.7 °C 1011.2 hPa WSW 14.3 km/h 24.1 km/h 94% 1.3 mm 32 W/m2
10:44 2.7 °C 1.8 °C 1011.2 hPa NNW 6.4 km/h 11.3 km/h 94% 1.3 mm 26 W/m2
10:49 2.7 °C 1.8 °C 1011.2 hPa WNW 11.1 km/h 24.1 km/h 94% 1.0 mm 28 W/m2
10:54 2.7 °C 1.8 °C 1011.2 hPa NNE 7.9 km/h 8 km/h 94% 1.0 mm 35 W/m2
10:59 2.7 °C 1.8 °C 1011.2 hPa WNW 4.7 km/h 14.5 km/h 94% 1.0 mm 39 W/m2
11:04 2.7 °C 1.8 °C 1011.2 hPa West 11.1 km/h 19.3 km/h 94% 0.8 mm 53 W/m2
11:09 2.7 °C 1.8 °C 1011.2 hPa WNW 4.7 km/h 17.7 km/h 94% 0.8 mm 60 W/m2
11:14 2.8 °C 1.9 °C 1010.8 hPa West 3.2 km/h 19.3 km/h 94% 0.8 mm 70 W/m2
11:19 2.8 °C 1.9 °C 1011.2 hPa SE 3.2 km/h 11.3 km/h 94% 0.8 mm 49 W/m2
11:24 2.9 °C 2 °C 1010.8 hPa SSE 16.3 km/h 17.7 km/h 94% 1.0 mm 53 W/m2
11:29 2.9 °C 2 °C 1010.8 hPa West 4.7 km/h 14.5 km/h 94% 0.8 mm 47 W/m2
11:34 3 °C 2.1 °C 1010.8 hPa WNW 11.1 km/h 12.9 km/h 94% 1.0 mm 51 W/m2
11:39 3.1 °C 2.2 °C 1010.8 hPa SW 1.4 km/h 6.4 km/h 94% 1.0 mm 63 W/m2
11:44 3.2 °C 2.5 °C 1010.8 hPa NW 3.2 km/h 9.7 km/h 95% 1.0 mm 54 W/m2
11:49 3.3 °C 2.6 °C 1010.8 hPa NNW 7.9 km/h 14.5 km/h 95% 1.0 mm 53 W/m2
11:54 3.3 °C 2.6 °C 1010.5 hPa WNW 11.1 km/h 14.5 km/h 95% 1.3 mm 60 W/m2
11:59 3.4 °C 2.7 °C 1010.5 hPa West 4.7 km/h 11.3 km/h 95% 1.0 mm 67 W/m2
12:04 3.6 °C 2.9 °C 1010.5 hPa NW 9.7 km/h 19.3 km/h 95% 1.3 mm 62 W/m2
12:09 3.7 °C 3 °C 1010.5 hPa West 1.4 km/h 11.3 km/h 95% 1.3 mm 54 W/m2
12:14 3.8 °C 3.1 °C 1010.5 hPa NNW 9.7 km/h 16.1 km/h 95% 1.3 mm 60 W/m2
12:19 3.8 °C 3.1 °C 1010.2 hPa Calm   6.4 km/h 95% 1.3 mm 60 W/m2
12:24 3.9 °C 3.2 °C 1010.2 hPa NW 6.4 km/h 11.3 km/h 95% 1.3 mm 69 W/m2
12:29 4 °C 3.3 °C 1010.2 hPa NNW 9.7 km/h 12.9 km/h 95% 1.3 mm 67 W/m2
12:34 4.1 °C 3.4 °C 1010.2 hPa WNW 3.2 km/h 14.5 km/h 95% 1.3 mm 65 W/m2
12:39 4.2 °C 3.5 °C 1010.2 hPa WNW 4.7 km/h 12.9 km/h 95% 1.3 mm 72 W/m2
12:44 4.2 °C 3.5 °C 1010.2 hPa WNW 1.4 km/h 25.7 km/h 95% 1.0 mm 62 W/m2
12:49 4.3 °C 3.6 °C 1010.2 hPa WSW 4.7 km/h 14.5 km/h 95% 1.3 mm 51 W/m2
12:54 4.3 °C 3.6 °C 1010.2 hPa WNW 3.2 km/h 25.7 km/h 95% 1.0 mm 62 W/m2
12:59 4.4 °C 3.7 °C 1010.2 hPa WSW 6.4 km/h 16.1 km/h 95% 1.0 mm 47 W/m2
13:04 4.4 °C 3.7 °C 1009.8 hPa West 9.7 km/h 12.9 km/h 95% 0.8 mm 37 W/m2
13:09 4.5 °C 3.8 °C 1009.8 hPa West 3.2 km/h 12.9 km/h 95% 1.0 mm 54 W/m2
13:14 4.6 °C 3.9 °C 1009.8 hPa WSW 13 km/h 17.7 km/h 95% 1.0 mm 56 W/m2
13:19 4.7 °C 4 °C 1009.8 hPa West 17.7 km/h 17.7 km/h 95% 1.3 mm 67 W/m2
13:24 4.7 °C 4 °C 1009.8 hPa West 11.1 km/h 17.7 km/h 95% 1.0 mm 67 W/m2
13:29 4.8 °C 4.1 °C 1009.8 hPa West 9.7 km/h 22.5 km/h 95% 1.3 mm 72 W/m2
13:34 4.8 °C 4.1 °C 1009.5 hPa NW 3.2 km/h 14.5 km/h 95% 1.0 mm 49 W/m2
13:39 4.8 °C 4.1 °C 1009.5 hPa West 9.7 km/h 16.1 km/h 95% 1.0 mm 47 W/m2
13:44 4.9 °C 4.2 °C 1009.5 hPa WNW 6.4 km/h 14.5 km/h 95% 1.0 mm 58 W/m2
13:49 4.9 °C 4.2 °C 1009.5 hPa NW 9.7 km/h 20.9 km/h 95% 1.0 mm 37 W/m2
13:54 4.9 °C 4.2 °C 1009.5 hPa WNW 11.1 km/h 17.7 km/h 95% 1.0 mm 40 W/m2
13:59 5 °C 4.3 °C 1009.5 hPa NW 14.3 km/h 20.9 km/h 95% 1.0 mm 33 W/m2
14:04 5.1 °C 4.4 °C 1009.5 hPa West 4.7 km/h 11.3 km/h 95% 1.3 mm 32 W/m2
14:09 5.1 °C 4.4 °C 1009.5 hPa WNW 9.7 km/h 11.3 km/h 95% 1.0 mm 35 W/m2
14:14 5.1 °C 4.4 °C 1009.5 hPa West 3.2 km/h 14.5 km/h 95% 0.8 mm 30 W/m2
14:19 5.1 °C 4.4 °C 1009.5 hPa WNW 6.4 km/h 12.9 km/h 95% 0.5 mm 26 W/m2
14:24 5.2 °C 4.5 °C 1009.5 hPa West 11.1 km/h 22.5 km/h 95% 0.8 mm 19 W/m2
14:29 5.2 °C 4.5 °C 1009.5 hPa WSW 6.4 km/h 16.1 km/h 95% 0.5 mm 25 W/m2
14:35 5.2 °C 4.5 °C 1009.5 hPa West 9.7 km/h 17.7 km/h 95% 0.5 mm 49 W/m2
14:40 5.3 °C 4.6 °C 1009.5 hPa WNW 4.7 km/h 17.7 km/h 95% 0.5 mm 37 W/m2
14:45 5.3 °C 4.6 °C 1009.5 hPa NW 7.9 km/h 19.3 km/h 95% 0.5 mm 28 W/m2
14:50 5.4 °C 4.7 °C 1009.5 hPa NW 4.7 km/h 14.5 km/h 95% 0.5 mm 40 W/m2
14:55 5.4 °C 4.7 °C 1009.5 hPa WNW 14.3 km/h 19.3 km/h 95% 0.5 mm 40 W/m2
15:00 5.5 °C 4.8 °C 1009.5 hPa WSW 7.9 km/h 14.5 km/h 95% 0.5 mm 46 W/m2
15:05 5.6 °C 4.9 °C 1009.8 hPa West 6.4 km/h 17.7 km/h 95% 0.5 mm 67 W/m2
15:10 5.6 °C 4.9 °C 1009.8 hPa WNW 4.7 km/h 12.9 km/h 95% 0.5 mm 58 W/m2
15:15 5.7 °C 5 °C 1009.8 hPa WSW 6.4 km/h 12.9 km/h 95% 0.5 mm 56 W/m2
15:20 5.7 °C 5 °C 1009.8 hPa WNW 7.9 km/h 11.3 km/h 95% 0.5 mm 54 W/m2
15:25 5.8 °C 5.1 °C 1009.8 hPa WNW 11.1 km/h 14.5 km/h 95% 0.2 mm 53 W/m2
15:30 5.8 °C 5.1 °C 1009.8 hPa WNW 1.4 km/h 11.3 km/h 95% 0.2 mm 42 W/m2
15:35 5.9 °C 5.2 °C 1010.2 hPa West 6.4 km/h 11.3 km/h 95% 0.2 mm 26 W/m2
15:40 5.9 °C 5.2 °C 1010.2 hPa WNW 7.9 km/h 12.9 km/h 95% 0.2 mm 25 W/m2
15:45 5.9 °C 5.2 °C 1010.2 hPa West 4.7 km/h 12.9 km/h 95% 0.2 mm 25 W/m2
15:50 5.9 °C 5.2 °C 1010.2 hPa WSW 7.9 km/h 9.7 km/h 95% 0.5 mm 25 W/m2
15:55 5.9 °C 5.2 °C 1010.2 hPa WSW 11.1 km/h 14.5 km/h 95% 0.5 mm 28 W/m2
16:00 5.9 °C 5.2 °C 1010.2 hPa WSW 6.4 km/h 11.3 km/h 95% 0.5 mm 30 W/m2
16:05 5.9 °C 5.2 °C 1010.5 hPa WNW 11.1 km/h 14.5 km/h 95% 0.2 mm 21 W/m2
16:10 6 °C 5.3 °C 1010.5 hPa West 9.7 km/h 14.5 km/h 95% 0.2 mm 18 W/m2
16:15 6 °C 5.3 °C 1010.2 hPa SW 11.1 km/h 14.5 km/h 95% 0.5 mm 16 W/m2
16:20 6 °C 5.3 °C 1010.2 hPa WSW 13 km/h 12.9 km/h 95% 0.5 mm 18 W/m2
16:25 6.1 °C 5.4 °C 1010.5 hPa WSW 6.4 km/h 12.9 km/h 95% 0.5 mm 12 W/m2
16:30 6.1 °C 5.4 °C 1010.5 hPa WSW 4.7 km/h 11.3 km/h 95% 0.5 mm 14 W/m2
16:35 6.1 °C 5.4 °C 1010.5 hPa WNW 7.9 km/h 16.1 km/h 95% 0.5 mm 9 W/m2
16:40 6.1 °C 5.4 °C 1010.5 hPa West 13 km/h 16.1 km/h 95% 0.5 mm 5 W/m2
16:45 6.1 °C 5.4 °C 1010.8 hPa West 9.7 km/h 11.3 km/h 95% 0.5 mm 5 W/m2
16:50 6.2 °C 5.5 °C 1010.8 hPa WNW 7.9 km/h 16.1 km/h 95% 0.5 mm 0 W/m2
16:55 6.2 °C 5.5 °C 1010.8 hPa West 6.4 km/h 16.1 km/h 95% 0.5 mm 0 W/m2
17:00 6.2 °C 5.5 °C 1011.2 hPa West 13 km/h 14.5 km/h 95% 0.5 mm 0 W/m2
17:05 6.3 °C 5.6 °C 1011.2 hPa West 6.4 km/h 12.9 km/h 95% 0.5 mm 0 W/m2
17:10 6.2 °C 5.5 °C 1011.2 hPa WNW 7.9 km/h 14.5 km/h 95% 0.5 mm 0 W/m2
17:15 6.3 °C 5.6 °C 1011.2 hPa WNW 4.7 km/h 9.7 km/h 95% 0.2 mm 0 W/m2
17:20 6.2 °C 5.3 °C 1011.5 hPa WNW 7.9 km/h 11.3 km/h 94% 0.2 mm 0 W/m2
17:25 6.3 °C 5.4 °C 1011.5 hPa WNW 4.7 km/h 9.7 km/h 94% 0.0 mm 0 W/m2
17:30 6.2 °C 5.2 °C 1011.9 hPa WNW 6.4 km/h 11.3 km/h 93% 0.0 mm 0 W/m2
17:35 6.2 °C 5.2 °C 1011.9 hPa West 4.7 km/h 11.3 km/h 93% 0.0 mm 0 W/m2
17:40 6.1 °C 5.1 °C 1011.9 hPa West 4.7 km/h 11.3 km/h 93% 0.0 mm 0 W/m2
17:45 6.1 °C 5.1 °C 1011.9 hPa WNW 7.9 km/h 12.9 km/h 93% 0.0 mm 0 W/m2
17:50 6.1 °C 5.1 °C 1011.9 hPa West 9.7 km/h 9.7 km/h 93% 0.0 mm 0 W/m2
17:55 6.1 °C 5.1 °C 1012.2 hPa NW 4.7 km/h 9.7 km/h 93% 0.0 mm 0 W/m2
18:00 6 °C 5 °C 1012.2 hPa WNW 3.2 km/h 9.7 km/h 93% 0.0 mm 0 W/m2
18:05 5.9 °C 4.9 °C 1012.2 hPa West 3.2 km/h 4.8 km/h 93% 0.0 mm 0 W/m2
18:10 5.8 °C 4.8 °C 1012.2 hPa WNW 3.2 km/h 6.4 km/h 93% 0.0 mm 0 W/m2
18:15 5.7 °C 4.7 °C 1012.2 hPa WNW 1.4 km/h 4.8 km/h 93% 0.0 mm 0 W/m2
18:20 5.6 °C 4.6 °C 1012.5 hPa WNW 1.4 km/h 4.8 km/h 93% 0.0 mm 0 W/m2
18:25 5.4 °C 4.4 °C 1012.5 hPa West 3.2 km/h 4.8 km/h 93% 0.0 mm 0 W/m2
18:30 5.3 °C 4.4 °C 1012.5 hPa WNW 3.2 km/h 4.8 km/h 94% 0.0 mm 0 W/m2
18:35 5.3 °C 4.4 °C 1012.9 hPa WNW 3.2 km/h 4.8 km/h 94% 0.0 mm 0 W/m2
18:40 5.2 °C 4.3 °C 1012.9 hPa WNW 4.7 km/h 4.8 km/h 94% 0.0 mm 0 W/m2
18:45 5.1 °C 4.2 °C 1012.9 hPa WSW 4.7 km/h 6.4 km/h 94% 0.0 mm 0 W/m2
18:50 5.1 °C 4.2 °C 1013.2 hPa WNW 3.2 km/h 6.4 km/h 94% 0.0 mm 0 W/m2
18:55 5.1 °C 4.2 °C 1013.2 hPa WSW 6.4 km/h 11.3 km/h 94% 0.0 mm 0 W/m2
19:01 5.1 °C 4.2 °C 1013.2 hPa WNW 7.9 km/h 8 km/h 94% 0.0 mm 0 W/m2
19:06 5.1 °C 4.1 °C 1013.2 hPa West 4.7 km/h 8 km/h 93% 0.0 mm 0 W/m2
19:11 5.1 °C 3.9 °C 1013.5 hPa WNW 3.2 km/h 9.7 km/h 92% 0.0 mm 0 W/m2
19:16 5.1 °C 3.9 °C 1013.5 hPa WNW 6.4 km/h 9.7 km/h 92% 0.0 mm 0 W/m2
19:21 5.1 °C 3.9 °C 1013.5 hPa West 4.7 km/h 6.4 km/h 92% 0.0 mm 0 W/m2
19:26 4.9 °C 3.6 °C 1013.5 hPa WNW 6.4 km/h 8 km/h 91% 0.0 mm 0 W/m2
19:31 4.8 °C 3.5 °C 1013.9 hPa WNW 6.4 km/h 11.3 km/h 91% 0.0 mm 0 W/m2
19:36 4.8 °C 3.5 °C 1013.9 hPa WSW 4.7 km/h 6.4 km/h 91% 0.0 mm 0 W/m2
19:41 4.6 °C 3.3 °C 1014.2 hPa West 3.2 km/h 9.7 km/h 91% 0.0 mm 0 W/m2
19:46 4.4 °C 3.1 °C 1014.2 hPa WNW 7.9 km/h 11.3 km/h 91% 0.0 mm 0 W/m2
19:51 4.3 °C 3 °C 1014.2 hPa WNW 3.2 km/h 6.4 km/h 91% 0.0 mm 0 W/m2
19:56 4.2 °C 2.9 °C 1014.6 hPa Calm   9.7 km/h 91% 0.0 mm 0 W/m2
20:01 4.2 °C 2.9 °C 1014.6 hPa WNW 3.2 km/h 3.2 km/h 91% 0.0 mm 0 W/m2
20:06 4 °C 2.7 °C 1014.6 hPa WNW 3.2 km/h 4.8 km/h 91% 0.0 mm 0 W/m2
20:11 3.9 °C 2.7 °C 1014.6 hPa West 4.7 km/h 11.3 km/h 92% 0.0 mm 0 W/m2
20:16 3.8 °C 2.6 °C 1014.9 hPa WSW 3.2 km/h 9.7 km/h 92% 0.0 mm 0 W/m2
20:21 3.8 °C 2.6 °C 1014.9 hPa WNW 1.4 km/h 8 km/h 92% 0.0 mm 0 W/m2
20:26 3.9 °C 2.7 °C 1015.2 hPa WNW 4.7 km/h 11.3 km/h 92% 0.0 mm 0 W/m2
20:31 3.9 °C 2.6 °C 1015.2 hPa WNW 4.7 km/h 6.4 km/h 91% 0.0 mm 0 W/m2
20:36 3.9 °C 2.6 °C 1015.2 hPa WSW 4.7 km/h 6.4 km/h 91% 0.0 mm 0 W/m2
20:41 3.9 °C 2.6 °C 1015.2 hPa WSW 6.4 km/h 6.4 km/h 91% 0.0 mm 0 W/m2
20:46 3.9 °C 2.4 °C 1015.2 hPa NW 4.7 km/h 11.3 km/h 90% 0.0 mm 0 W/m2
20:51 3.9 °C 2.4 °C 1015.6 hPa West 9.7 km/h 9.7 km/h 90% 0.0 mm 0 W/m2
20:56 3.8 °C 2 °C 1015.6 hPa West 4.7 km/h 11.3 km/h 88% 0.0 mm 0 W/m2
21:01 3.8 °C 2 °C 1015.6 hPa WNW 3.2 km/h 8 km/h 88% 0.0 mm 0 W/m2
21:06 3.7 °C 1.9 °C 1015.9 hPa West 4.7 km/h 6.4 km/h 88% 0.0 mm 0 W/m2
21:11 3.4 °C 1.6 °C 1015.9 hPa WNW 4.7 km/h 11.3 km/h 88% 0.0 mm 0 W/m2
21:16 3.2 °C 1.4 °C 1015.9 hPa West 4.7 km/h 6.4 km/h 88% 0.0 mm 0 W/m2
21:21 3 °C 1.2 °C 1015.9 hPa WNW 6.4 km/h 11.3 km/h 88% 0.0 mm 0 W/m2
21:26 2.8 °C 1.2 °C 1016.3 hPa West 3.2 km/h 6.4 km/h 89% 0.0 mm 0 W/m2
21:31 2.6 °C 1 °C 1015.9 hPa West 3.2 km/h 6.4 km/h 89% 0.0 mm 0 W/m2
21:36 2.4 °C 0.9 °C 1016.3 hPa WNW 3.2 km/h 4.8 km/h 90% 0.0 mm 0 W/m2
21:41 2.3 °C 0.7 °C 1016.3 hPa West 4.7 km/h 6.4 km/h 89% 0.0 mm 0 W/m2
21:46 2.3 °C 0.8 °C 1016.3 hPa West 6.4 km/h 6.4 km/h 90% 0.0 mm 0 W/m2
21:51 2.2 °C 0.6 °C 1016.3 hPa West 4.7 km/h 4.8 km/h 89% 0.0 mm 0 W/m2
21:56 2.2 °C 0.6 °C 1016.3 hPa West 4.7 km/h 6.4 km/h 89% 0.0 mm 0 W/m2
22:01 2.2 °C 0.4 °C 1016.6 hPa West 3.2 km/h 6.4 km/h 88% 0.0 mm 0 W/m2
22:06 2.2 °C 0.4 °C 1016.6 hPa West 3.2 km/h 6.4 km/h 88% 0.0 mm 0 W/m2
22:11 2 °C 0.4 °C 1016.6 hPa WNW 4.7 km/h 8 km/h 89% 0.0 mm 0 W/m2
22:16 1.9 °C 0.3 °C 1016.6 hPa West 4.7 km/h 12.9 km/h 89% 0.0 mm 0 W/m2
22:21 2 °C 0.2 °C 1016.9 hPa West 6.4 km/h 11.3 km/h 88% 0.0 mm 0 W/m2
22:26 2.2 °C 0.3 °C 1016.9 hPa West 6.4 km/h 12.9 km/h 87% 0.0 mm 0 W/m2
22:31 2.3 °C 0.4 °C 1016.9 hPa WNW 6.4 km/h 12.9 km/h 87% 0.0 mm 0 W/m2
22:36 2.4 °C 0.3 °C 1016.9 hPa WNW 4.7 km/h 11.3 km/h 86% 0.0 mm 0 W/m2
22:41 2.3 °C 0.2 °C 1016.9 hPa West 9.7 km/h 12.9 km/h 86% 0.0 mm 0 W/m2
22:46 2.2 °C 0.3 °C 1017.3 hPa WNW 4.7 km/h 9.7 km/h 87% 0.0 mm 0 W/m2
22:51 2.2 °C 0.3 °C 1017.3 hPa WSW 6.4 km/h 11.3 km/h 87% 0.0 mm 0 W/m2
22:56 2 °C 0.1 °C 1017.3 hPa West 11.1 km/h 11.3 km/h 87% 0.0 mm 0 W/m2
23:01 2.1 °C 0.2 °C 1017.3 hPa WNW 7.9 km/h 19.3 km/h 87% 0.0 mm 0 W/m2
23:06 2.3 °C 0.2 °C 1017.3 hPa West 6.4 km/h 12.9 km/h 86% 0.0 mm 0 W/m2
23:11 2.3 °C 0.2 °C 1017.3 hPa WNW 11.1 km/h 19.3 km/h 86% 0.0 mm 0 W/m2
23:16 2.4 °C 0.3 °C 1017.3 hPa West 9.7 km/h 14.5 km/h 86% 0.0 mm 0 W/m2
23:21 2.4 °C 0.3 °C 1017.3 hPa WSW 7.9 km/h 9.7 km/h 86% 0.0 mm 0 W/m2
23:26 2.3 °C 0.2 °C 1017.3 hPa WNW 7.9 km/h 12.9 km/h 86% 0.0 mm 0 W/m2
23:31 2.3 °C 0.2 °C 1017.3 hPa WNW 9.7 km/h 12.9 km/h 86% 0.0 mm 0 W/m2
23:36 2.2 °C 0.1 °C 1017.3 hPa NW 7.9 km/h 14.5 km/h 86% 0.0 mm 0 W/m2
23:41 2.2 °C 0.1 °C 1017.6 hPa WSW 7.9 km/h 12.9 km/h 86% 0.0 mm 0 W/m2
23:46 2.2 °C 0.3 °C 1017.6 hPa West 4.7 km/h 14.5 km/h 87% 0.0 mm 0 W/m2
23:51 2.2 °C 0.3 °C 1017.6 hPa West 4.7 km/h 9.7 km/h 87% 0.0 mm 0 W/m2
23:56 2.1 °C 0.2 °C 1017.6 hPa West 11.1 km/h 14.5 km/h 87% 0.0 mm 0 W/m2
Juneau County Weather
Compliments of Weather Underground - 4 mb